User: anonymous
Location: Unspecified
(0.0000°N, 0.0000°E)
Time: 23:24:52
(UTC+02:00)
Language:

Cosmos 1072 Rocket - Orbit

View from above orbital plane
View from above orbital plane
View from above satellite
View from above satellite

Ground track
Ground track

The orbit data is extracted from the following two-line orbital elements,

1 11239U 79003B   14112.90800647  .00000083  00000-0  69641-4 0  2958
2 11239 082.9408 223.0516 0040506 010.6319 128.3142 13.75726974769557
Epoch (UTC): 22 April 2014 21:47:31
Eccentricity: 0.0040506
inclination: 82.9408°
perigee height: 949 km
apogee height: 1009 km
right ascension of ascending node: 223.0516°
argument of perigee: 10.6319°
revolutions per day: 13.75726974
mean anomaly at epoch: 128.3142°
orbit number at epoch: 76955

The dashed part of the orbit path shows where the satellite is in the earth's shadow,  

DLR